Location: Chiroubles
(46.1812°N, 4.6660°E)
Time: 03:39:33
(UTC+00:00)

Explorer 7 - Pass Details

Date: 01 December 2020
Orbit: 484 x 678 km, 50.3° (Epoch: 25 January)

Event Time Altitude Azimuth Distance (km) Brightness Sun altitude
Exits shadow 04:50:54 58° 355° (N) 652 7.0 -22.3°
Maximum altitude 04:51:09 59° 14° (NNE) 640 7.0 -22.2°
Drops below altitude 10° 04:55:09 10° 95° (E) 1,774 10.6 -21.6°
Sets 04:57:19 0° 99° (E) 2,633 11.9 -21.2°
